Regional Weather Roundup
Issued by NWS

Home | Current Version | Previous Version | Graphics & Text | Print | Product List | Glossary On
Versions: 1 2 3 4 5 6 7 8 9 10 11 12 13 14 15 16 17 18 19 20 21 22 23 24 25 26 27 28 29 30 31 32 33 34 35 36 37 38 39 40 41 42 43 44 45 46 47 48 49 50
359
ASUS43 KLMK 271402
RWRKY
KENTUCKY REGIONAL WEATHER ROUNDUP
NATIONAL WEATHER SERVICE LOUISVILLE KY
1000 AM EDT TUE JUN 27 2017

NOTE "FAIR" INDICATES FEW OR NO CLOUDS BELOW 12,000 FEET
WITH NO SIGNIFICANT WEATHER AND/OR OBSTRUCTIONS TO VISIBILITY.

KYZ001>023-026-027-061>063-070>075-271500-
WESTERN AND SOUTH CENTRAL KENTUCKY

CITY           SKY/WX    TMP DP  RH WIND       PRES   REMARKS
PADUCAH        SUNNY     70  56  61 VRB3      30.15S
HENDERSON      SUNNY     69  55  60 CALM      30.17S
OWENSBORO      SUNNY     69  53  56 N7        30.17S
HOPKINSVILLE   SUNNY     69  56  61 NE8       30.15S
BOWLING GREEN  SUNNY     71  55  56 E5        30.17R
GLASGOW        NOT AVBL
$$

KYZ024-025-028>034-038-045-046-053-271500-
NORTH CENTRAL KENTUCKY

CITY           SKY/WX    TMP DP  RH WIND       PRES   REMARKS
LOUISVILLE/SDF MOSUNNY   69  57  65 CALM      30.17R
LOUISVILLE/LOU SUNNY     67  55  65 W5        30.17R
FORT KNOX      SUNNY     67  51  57 CALM      30.16R
$$

KYZ035>037-039>044-047>052-055>060-089>105-271500-
NORTHEAST KENTUCKY

CITY           SKY/WX    TMP DP  RH WIND       PRES   REMARKS
LEXINGTON      SUNNY     67  54  63 CALM      30.18R
COVINGTON      MOSUNNY   64  48  56 N6        30.16R
FRANKFORT      SUNNY     66  53  63 VRB3      30.16R
$$

KYZ054-064>069-076>088-106>120-271500-
SOUTHEAST KENTUCKY

CITY           SKY/WX    TMP DP  RH WIND       PRES   REMARKS
JACKSON        PTSUNNY   64  51  62 NW3       30.17R
LONDON         SUNNY     68  49  50 E5        30.18R
SOMERSET       SUNNY     64  50  59 CALM      30.18S
MIDDLESBORO    SUNNY     68  53  59 CALM      30.18R
MONTICELLO     SUNNY     67  53  61 NW6G17    30.19S
$$





USA.gov is the U.S. government's official web portal to all federal, state and local government web resources and services.